TimeCDT,TemperatureF,Dew PointF,Humidity,Sea Level PressureIn,VisibilityMPH,Wind Direction,Wind SpeedMPH,Gust SpeedMPH,PrecipitationIn,Events,Conditions,WindDirDegrees,DateUTC
12:13 AM,64.8,61.9,90,29.79,10.0,Calm,Calm,-,N/A,,Clear,0,2013-08-07 05:13:00
12:33 AM,64.8,61.7,90,29.79,10.0,Calm,Calm,-,N/A,,Clear,0,2013-08-07 05:33:00
12:53 AM,65.1,61.7,89,29.79,10.0,West,4.6,-,N/A,,Clear,280,2013-08-07 05:53:00
1:13 AM,64.9,61.7,89,29.79,10.0,WNW,4.6,-,N/A,,Clear,290,2013-08-07 06:13:00
1:33 AM,65.3,61.7,88,29.80,10.0,WNW,4.6,-,N/A,,Clear,290,2013-08-07 06:33:00
1:53 AM,65.1,61.2,87,29.80,10.0,WNW,4.6,-,N/A,,Clear,290,2013-08-07 06:53:00
2:13 AM,64.8,61.0,88,29.81,10.0,West,5.8,-,N/A,,Clear,270,2013-08-07 07:13:00
2:33 AM,64.6,61.2,89,29.81,10.0,WNW,4.6,-,N/A,,Clear,300,2013-08-07 07:33:00
2:53 AM,64.4,61.0,89,29.81,10.0,NW,4.6,-,N/A,,Scattered Clouds,320,2013-08-07 07:53:00
3:13 AM,64.9,61.9,90,29.81,10.0,NW,8.1,-,N/A,,Mostly Cloudy,310,2013-08-07 08:13:00
3:33 AM,65.3,62.6,91,29.82,10.0,NNW,6.9,-,N/A,,Overcast,330,2013-08-07 08:33:00
3:53 AM,65.5,62.2,89,29.82,10.0,North,5.8,-,N/A,,Overcast,350,2013-08-07 08:53:00
4:13 AM,65.8,62.6,89,29.83,10.0,North,5.8,-,N/A,,Overcast,360,2013-08-07 09:13:00
4:33 AM,65.8,62.2,88,29.83,10.0,North,5.8,-,N/A,,Overcast,350,2013-08-07 09:33:00
4:53 AM,66.0,61.9,86,29.84,10.0,North,9.2,-,N/A,,Overcast,350,2013-08-07 09:53:00
5:13 AM,65.5,61.9,88,29.84,10.0,North,10.4,-,N/A,,Mostly Cloudy,350,2013-08-07 10:13:00
5:33 AM,65.5,62.1,89,29.84,10.0,NNW,5.8,-,N/A,,Overcast,340,2013-08-07 10:33:00
5:53 AM,65.8,62.2,88,29.85,10.0,NNW,4.6,-,N/A,,Overcast,330,2013-08-07 10:53:00
6:13 AM,66.0,62.2,88,29.87,10.0,NNW,11.5,-,N/A,,Overcast,330,2013-08-07 11:13:00
6:33 AM,65.7,61.0,85,29.87,10.0,NNW,5.8,-,N/A,,Overcast,330,2013-08-07 11:33:00
6:53 AM,65.3,59.9,83,29.88,10.0,North,9.2,-,N/A,,Overcast,350,2013-08-07 11:53:00
7:13 AM,64.8,59.9,84,29.89,10.0,North,9.2,-,N/A,,Overcast,350,2013-08-07 12:13:00
7:33 AM,64.8,59.2,82,29.89,10.0,North,8.1,-,N/A,,Overcast,350,2013-08-07 12:33:00
7:53 AM,64.9,58.5,79,29.90,10.0,North,9.2,-,N/A,,Overcast,350,2013-08-07 12:53:00
8:13 AM,65.3,58.6,79,29.91,10.0,NNW,8.1,-,N/A,,Overcast,340,2013-08-07 13:13:00
8:33 AM,64.8,58.5,80,29.91,10.0,NNW,10.4,-,N/A,,Overcast,340,2013-08-07 13:33:00
8:53 AM,64.9,57.6,77,29.92,10.0,North,11.5,-,N/A,,Mostly Cloudy,360,2013-08-07 13:53:00
9:13 AM,66.0,57.0,73,29.93,10.0,North,9.2,-,N/A,,Scattered Clouds,360,2013-08-07 14:13:00
9:33 AM,67.1,56.1,68,29.93,10.0,North,11.5,-,N/A,,Clear,350,2013-08-07 14:33:00
9:53 AM,67.3,56.1,67,29.94,10.0,North,11.5,16.1,N/A,,Clear,360,2013-08-07 14:53:00
10:13 AM,68.4,55.6,64,29.94,10.0,North,10.4,-,N/A,,Clear,350,2013-08-07 15:13:00
10:33 AM,69.8,54.7,59,29.95,10.0,North,10.4,-,N/A,,Clear,360,2013-08-07 15:33:00
10:53 AM,70.3,54.9,58,29.96,10.0,North,10.4,16.1,N/A,,Clear,10,2013-08-07 15:53:00
11:13 AM,71.1,52.7,52,29.96,10.0,North,12.7,-,N/A,,Clear,350,2013-08-07 16:13:00
11:33 AM,70.7,52.5,52,29.97,10.0,NNE,10.4,18.4,N/A,,Clear,20,2013-08-07 16:33:00
11:53 AM,72.1,53.2,51,29.98,10.0,NNW,12.7,-,N/A,,Clear,340,2013-08-07 16:53:00
12:13 PM,72.3,51.1,47,29.97,10.0,NNE,13.8,-,N/A,,Clear,20,2013-08-07 17:13:00
12:33 PM,72.9,52.0,48,29.97,10.0,North,8.1,-,N/A,,Clear,350,2013-08-07 17:33:00
12:53 PM,73.9,51.3,45,29.98,10.0,North,11.5,16.1,N/A,,Clear,350,2013-08-07 17:53:00
1:13 PM,73.6,51.1,45,29.98,10.0,North,11.5,-,N/A,,Clear,360,2013-08-07 18:13:00
1:33 PM,74.1,50.4,43,29.98,10.0,North,6.9,-,N/A,,Clear,10,2013-08-07 18:33:00
1:53 PM,75.2,52.0,44,29.98,10.0,North,5.8,-,N/A,,Clear,360,2013-08-07 18:53:00
2:13 PM,74.7,50.2,42,29.98,10.0,NNE,3.5,-,N/A,,Clear,20,2013-08-07 19:13:00
2:33 PM,74.8,48.7,40,29.98,10.0,NNW,6.9,-,N/A,,Clear,340,2013-08-07 19:33:00
2:53 PM,75.7,49.8,40,29.97,10.0,NNE,9.2,-,N/A,,Clear,20,2013-08-07 19:53:00
3:13 PM,75.6,48.7,39,29.97,10.0,NNE,6.9,-,N/A,,Clear,20,2013-08-07 20:13:00
3:33 PM,75.9,49.8,40,29.97,10.0,North,5.8,-,N/A,,Clear,350,2013-08-07 20:33:00
3:53 PM,76.8,50.5,40,29.97,10.0,NNE,6.9,10.4,N/A,,Clear,20,2013-08-07 20:53:00
4:13 PM,76.5,48.2,37,29.97,10.0,North,8.1,-,N/A,,Clear,360,2013-08-07 21:13:00
4:33 PM,76.3,47.8,37,29.97,10.0,NNE,10.4,-,N/A,,Clear,30,2013-08-07 21:33:00
4:53 PM,77.0,47.3,35,29.97,10.0,North,11.5,-,N/A,,Clear,350,2013-08-07 21:53:00
5:13 PM,76.5,45.5,33,29.97,10.0,North,9.2,-,N/A,,Clear,360,2013-08-07 22:13:00
5:33 PM,76.3,47.1,36,29.97,10.0,North,9.2,-,N/A,,Clear,10,2013-08-07 22:33:00
5:53 PM,76.3,46.9,35,29.97,10.0,North,6.9,-,N/A,,Clear,350,2013-08-07 22:53:00
6:13 PM,76.3,46.9,35,29.97,10.0,NNW,6.9,16.1,N/A,,Clear,340,2013-08-07 23:13:00
6:33 PM,76.1,47.3,36,29.97,10.0,NNE,6.9,-,N/A,,Clear,30,2013-08-07 23:33:00
6:53 PM,75.7,46.8,36,29.97,10.0,North,8.1,-,N/A,,Clear,350,2013-08-07 23:53:00
7:13 PM,75.4,46.6,36,29.97,10.0,NNE,5.8,-,N/A,,Clear,20,2013-08-08 00:13:00
7:33 PM,75.0,47.8,38,29.98,10.0,NNW,8.1,-,N/A,,Clear,340,2013-08-08 00:33:00
7:53 PM,74.5,48.0,39,29.98,10.0,North,3.5,-,N/A,,Clear,10,2013-08-08 00:53:00
8:13 PM,73.6,48.2,41,29.98,10.0,North,4.6,-,N/A,,Clear,10,2013-08-08 01:13:00
8:33 PM,73.2,48.4,41,29.99,10.0,North,3.5,-,N/A,,Clear,10,2013-08-08 01:33:00
8:53 PM,72.1,48.4,43,29.99,10.0,Calm,Calm,-,N/A,,Clear,0,2013-08-08 01:53:00
9:13 PM,71.4,49.5,46,30.00,10.0,Calm,Calm,-,N/A,,Clear,0,2013-08-08 02:13:00
9:33 PM,68.5,53.6,59,30.01,10.0,Calm,Calm,-,N/A,,Clear,0,2013-08-08 02:33:00
9:53 PM,68.0,54.1,61,30.02,10.0,Calm,Calm,-,N/A,,Clear,0,2013-08-08 02:53:00
10:13 PM,66.6,54.5,65,30.03,10.0,Calm,Calm,-,N/A,,Clear,0,2013-08-08 03:13:00
10:33 PM,66.2,54.7,66,30.03,10.0,Calm,Calm,-,N/A,,Clear,0,2013-08-08 03:33:00
10:53 PM,65.1,55.0,70,30.03,10.0,Calm,Calm,-,N/A,,Clear,0,2013-08-08 03:53:00
11:13 PM,64.8,55.2,71,30.03,10.0,Calm,Calm,-,N/A,,Clear,0,2013-08-08 04:13:00
11:33 PM,64.0,55.0,73,30.03,10.0,Calm,Calm,-,N/A,,Clear,0,2013-08-08 04:33:00
11:53 PM,63.5,55.0,74,30.03,10.0,Calm,Calm,-,N/A,,Clear,0,2013-08-08 04:53:00